www.pogodaiklimat.ru

Погода и климат >> Архив погоды >> Австралия >> Южная Австралия >> Ламеру


ПОГОДА в Ламеру

  • Прогноз погоды в Ламеру
  • Монитор погоды в Ламеру

АРХИВ ПОГОДЫ в Ламеру

Время (UTC), дата Ветер
(напр.,м/с)
 
Видим.   Явления Облачность Т
(С)
Тd
(С)
f
(%)
Тe
(С)
Тes
(С)
Комфортность P
(гПа)
Po
(гПа)
Тmin
(С)
Tmax
(С)
R
(мм)
R24
(мм)
S
(см)
13 13.07 З 4 н/о н/о +5.0 +4.1 94 +1 +1 1029.1 1015.5
14 13.07 З 4 н/о н/о +5.1 +4.2 94 +1 +1 1029.1 1015.5 +12.6
17 13.07 З 5 н/о н/о +6.2 +5.5 95 +2 +2 1027.8 1014.2
19 13.07 З 4 н/о н/о +6.8 +5.9 94 +3 +3 1027.0 1013.4
20 13.07 СЗ 4 н/о н/о +6.8 +5.9 94 +3 +3 1027.1 1013.5
22 13.07 З 6 н/о н/о +8.0 +7.6 97 +4 +4 1027.8 1014.2
23 13.07 З 8 н/о {туман} н/о +8.7 +7.9 95 +4 +4 1028.1 1014.5 0.8
01 14.07 З 10 н/о н/о +10.9 +9.5 91 +7 +7 1028.2 1014.6
02 14.07 З 10 н/о {туман} н/о +12.2 +9.4 83 +9 +9 1027.7 1014.1 +3.9
04 14.07 З 11 н/о н/о +12.4 +9.1 80 +9 +9 1025.9 1012.3
05 14.07 З 11 н/о {туман} н/о +11.5 +9.2 86 +7 +7 1025.9 1012.3 0.2
07 14.07 З 9 н/о н/о +11.0 +9.8 92 +7 +7 1025.8 1012.2
08 14.07 З 8 н/о н/о +10.3 +9.1 92 +6 +6 1026.1 1012.5
10 14.07 З 8 н/о н/о +10.1 +9.0 93 +6 +6 1026.3 1012.7
11 14.07 З 8 н/о н/о +10.1 +9.0 93 +6 +6 1025.8 1012.2
13 14.07 З 9 н/о н/о +10.1 +8.7 91 +6 +6 1025.5 1011.9
14 14.07 З 9 н/о {туман} н/о +9.6 +8.5 93 +5 +5 1025.6 1012.0 +13.3
16 14.07 ЮЗ 8 н/о н/о +9.7 +8.8 94 +5 +5 1025.3 1011.7
17 14.07 ЮЗ 7 н/о в посл. час дождь {туман} н/о +9.7 +8.8 94 +6 +6 1025.9 1012.3 0.6
19 14.07 ЮЗ 6 н/о н/о +9.0 +8.2 95 +5 +5 1025.9 1012.3
20 14.07 ЮЗ 6 н/о н/о +9.2 +8.4 95 +5 +5 1026.4 1012.8
22 14.07 ЮЗ 5 н/о н/о +9.5 +8.9 96 +6 +6 1027.4 1013.8
23 14.07 ЮЗ 4 н/о {туман} н/о +9.7 +9.1 96 +7 +7 1028.3 1014.7 1
01 15.07 ЮЗ 7 н/о н/о +11.9 +10.6 92 +9 +9 1029.0 1015.4
02 15.07 ЮЗ 6 н/о н/о +12.3 +9.7 84 +10 +10 1028.9 1015.3 +8.8
04 15.07 З 6 н/о н/о +14.0 +11.5 85 +12 +12 1027.6 1014.0
05 15.07 ЮЗ 7 н/о н/о +13.3 +10.8 85 +11 +11 1027.2 1013.6
07 15.07 ЮЗ 7 н/о н/о +12.4 +10.5 88 +10 +10 1027.9 1014.3
08 15.07 ЮЗ 7 н/о н/о +11.3 +10.7 96 +8 +8 1028.1 1014.5
10 15.07 ЮЗ 6 н/о н/о +11.0 +10.1 94 +8 +8 1029.0 1015.4
11 15.07 ЮЗ 5 н/о н/о +10.7 +10.2 97 +8 +8 1028.8 1015.2
13 15.07 ЮЗ 6 н/о н/о +10.8 +10.5 98 +8 +8 1028.8 1015.2
14 15.07 ЮЗ 6 н/о н/о +10.8 +10.5 98 +8 +8 1028.7 1015.1 +14.4
16 15.07 ЮЗ 5 н/о н/о +10.7 +10.2 97 +8 +8 1028.1 1014.5
17 15.07 ЮЗ 5 н/о в посл. час дождь {туман} н/о +10.6 +10.1 97 +8 +8 1027.7 1014.1 0.2
19 15.07 ЮЗ 6 н/о н/о +10.1 +9.6 97 +7 +7 1027.4 1013.8
20 15.07 ЮЗ 4 н/о н/о +10.3 +9.8 97 +7 +7 1027.5 1013.9
22 15.07 ЮЗ 4 н/о н/о +10.4 +9.9 97 +8 +8 1028.6 1015.0
23 15.07 ЮЗ 4 н/о н/о +10.9 +10.4 97 +8 +8 1028.8 1015.2 0.2
01 16.07 ЮЗ 6 н/о н/о +12.5 +10.7 89 +10 +10 1029.0 1015.4
02 16.07 ЮЗ 6 н/о н/о +13.7 +10.5 81 +12 +12 1028.4 1014.8 +10.1
04 16.07 ЮЗ 6 н/о н/о +13.8 +10.2 79 +12 +12 1026.9 1013.3
05 16.07 З 5 н/о н/о +14.2 +10.0 76 +12 +12 1026.4 1012.8
07 16.07 ЮЗ 6 н/о н/о +12.9 +9.9 82 +11 +11 1026.2 1012.6
08 16.07 ЮЗ 4 н/о н/о +12.2 +9.9 86 +10 +10 1026.3 1012.7
10 16.07 ЮЗ 3 н/о н/о +11.5 +9.2 86 +10 +10 1026.9 1013.3
11 16.07 З 3 н/о н/о +11.3 +9.2 87 +10 +10 1026.8 1013.2
13 16.07 СЗ 3 н/о н/о +10.4 +9.2 92 +8 +8 1026.0 1012.4
14 16.07 СЗ 4 н/о н/о +9.9 +9.0 94 +7 +7 1025.3 1011.7 +14.7
16 16.07 СЗ 4 н/о н/о +7.7 +7.3 97 +4 +4 1023.8 1010.3
17 16.07 СЗ 5 н/о н/о +8.1 +7.7 97 +4 +4 1023.0 1009.5
19 16.07 СЗ 5 н/о н/о +9.1 +8.2 94 +5 +5 1022.0 1008.5
20 16.07 З 6 н/о в посл. час дождь {туман} н/о +9.7 +9.1 96 +6 +6 1021.8 1008.3
22 16.07 З 7 н/о н/о +9.1 +7.4 89 +5 +5 1021.8 1008.3
23 16.07 З 6 н/о {туман} н/о +9.4 +7.0 85 +6 +6 1022.2 1008.7 0.4
01 17.07 З 9 н/о н/о +10.4 +9.5 94 +6 +6 1022.4 1008.9
04 17.07 З 10 н/о н/о +12.8 +9.6 81 +9 +9 1019.9 1006.4
05 17.07 З 7 н/о в посл. час дождь {туман} н/о +11.8 +10.0 89 +9 +9 1019.9 1006.4 0.8
07 17.07 З 7 н/о н/о +11.1 +9.7 91 +8 +8 1019.9 1006.4
08 17.07 З 7 н/о н/о +10.0 +8.8 92 +6 +6 1019.6 1006.1
10 17.07 З 4 н/о н/о +9.8 +9.0 95 +7 +7 1020.6 1007.1
11 17.07 З 4 н/о в посл. час дождь {туман} н/о +10.4 +9.6 95 +8 +8 1021.1 1007.6 0.2
13 17.07 З 4 н/о н/о +9.3 +8.8 97 +6 +6 1021.0 1007.5
14 17.07 З 3 н/о {туман} н/о +9.4 +8.9 97 +7 +7 1021.2 1007.7 +14.2
16 17.07 ЮЗ 2 н/о н/о +8.1 +7.7 97 +6 +6 1020.5 1007.0
17 17.07 ЮЗ 1 н/о {туман} н/о +6.7 +6.3 97 +7 +7 1020.2 1006.7 0.6
19 17.07 СЗ 2 н/о н/о +6.3 +6.0 98 +4 +4 1020.3 1006.8
20 17.07 С 2 н/о н/о +6.3 +6.0 98 +4 +4 1020.3 1006.8
22 17.07 С 3 н/о н/о +5.9 +5.6 98 +3 +3 1020.9 1007.4
23 17.07 С 4 н/о {туман} н/о +7.6 +7.3 98 +4 +4 1021.3 1007.8 2
01 18.07 СЗ 5 н/о н/о +11.7 +11.1 96 +9 +9 1020.6 1007.1
02 18.07 СЗ 6 н/о н/о +12.7 +10.4 86 +10 +10 1019.8 1006.3 +4.9
04 18.07 З 8 н/о н/о +13.4 +9.3 76 +11 +11 1018.3 1004.8
05 18.07 З 8 н/о н/о +13.3 +9.4 77 +11 +11 1018.4 1004.9
07 18.07 З 8 н/о н/о +12.5 +7.6 72 +10 +10 1018.4 1004.9
08 18.07 СЗ 3 н/о н/о +9.4 +7.0 85 +7 +7 1018.7 1005.2
10 18.07 СЗ 4 н/о н/о +7.6 +6.1 90 +4 +4 1019.3 1005.8
11 18.07 СЗ 4 н/о н/о +6.2 +5.2 93 +2 +2 1019.9 1006.4
13 18.07 СЗ 5 н/о н/о +7.6 +6.4 92 +4 +4 1019.9 1006.4
14 18.07 СЗ 4 н/о н/о +7.0 +5.9 93 +3 +3 1019.6 1006.1 +15.3
16 18.07 СЗ 5 н/о н/о +6.8 +5.7 93 +3 +3 1019.6 1006.1
17 18.07 З 4 н/о н/о +6.2 +5.3 94 +2 +2 1019.9 1006.4
19 18.07 СЗ 3 н/о н/о +6.9 +6.2 95 +4 +4 1020.2 1006.7
20 18.07 СЗ 3 н/о н/о +7.1 +6.4 95 +4 +4 1020.5 1007.0
22 18.07 СЗ 4 н/о н/о +7.0 +6.1 94 +3 +3 1021.2 1007.7
23 18.07 СЗ 3 н/о н/о +8.1 +7.0 93 +5 +5 1021.7 1008.2
01 19.07 С 2 н/о н/о +13.7 +11.0 84 +13 +13 1022.2 1008.7
02 19.07 СЗ 3 н/о н/о +14.4 +11.2 81 +13 +13 1021.8 1008.3 +5.5
04 19.07 СЗ 4 н/о н/о +15.7 +10.2 70 +15 +15 1020.0 1006.5
05 19.07 С 4 н/о н/о +16.2 +10.3 68 +16 +16 1019.5 1006.0
07 19.07 С 4 н/о н/о +15.0 +9.8 71 +14 +14 1019.5 1006.0
08 19.07 С 4 н/о н/о +11.2 +8.2 82 +9 +9 1019.3 1005.8
10 19.07 СВ 4 н/о н/о +8.1 +5.9 86 +5 +5 1019.8 1006.3
11 19.07 СВ 4 н/о н/о +7.7 +5.7 87 +4 +4 1019.9 1006.4
13 19.07 С 5 н/о н/о +7.8 +5.3 84 +4 +4 1019.6 1006.1
14 19.07 СВ 4 н/о н/о +6.1 +4.1 87 +2 +2 1019.0 1005.5 +16.9
16 19.07 С 5 н/о н/о +5.5 +3.2 85 +1 +1 1018.4 1004.9
17 19.07 СВ 4 н/о н/о +4.0 +2.0 87 -0 -0 1018.0 1004.5
19 19.07 С 6 н/о н/о +5.7 +2.2 78 +1 +1 1016.7 1003.3
20 19.07 С 5 н/о н/о +4.3 +1.7 83 -1 -1 1017.0 1003.5
22 19.07 СВ 5 н/о н/о +4.1 +1.6 84 -1 -1 1017.0 1003.5
23 19.07 С 5 н/о н/о +6.5 +2.6 76 +2 +2 1017.0 1003.5
01 20.07 С 7 н/о н/о +12.5 +5.2 61 +10 +10 1015.6 1002.2
02 20.07 С 8 н/о н/о +14.4 +4.7 52 +12 +12 1014.5 1001.1 +3.7
04 20.07 С 9 н/о н/о +17.3 +3.2 39 +16 +16 1011.6 998.2
05 20.07 С 9 н/о н/о +17.7 +1.7 34 +17 +17 1010.7 997.3
07 20.07 С 7 н/о н/о +15.7 +2.5 41 +14 +14 1009.1 995.8
08 20.07 С 6 н/о н/о +12.3 +2.5 51 +10 +10 1008.9 995.6
10 20.07 С 8 н/о н/о +11.6 +0.7 47 +9 +9 1007.9 994.6
11 20.07 С 7 н/о н/о +11.8 0.0 44 +9 +9 1008.0 994.7

 

Местоположение метеостанции Ламеру (Южная Австралия, Австралия): широта -35.38 долгота 140.54 высота над уровнем моря 111 м.

В архиве по умолчанию представлена погода в Ламеру за последнюю неделю. Архивные данные за месяц целиком и за предыдущие месяцы, начиная с января 2011 года, Вы можете получить, выбрав интересующий диапазон дат из раскрывающегося списка и нажав кнопку "Ввод!".


*Определитесь, кто Вы:
робот инопланетянин человек

Внимание! Время в таблицах - всемирное. Для получения местного времени необходимо прибавить поправку, которая равна 9.5 ч.

Смотрите также архив погоды в соседних городах и на ближайших метеорологических станциях:

Погода в Ките (Южная Австралия, Австралия) (83 км)
Погода в Локстоне (Южная Австралия, Австралия) (106 км)
Погода в Мюррей Бридж (Южная Австралия, Австралия) (124 км)
Погода в Ренмарке (Южная Австралия, Австралия) (132 км)
Погода в Уолпеапе (Виктория, Австралия) (136 км)
Погода в Падтауэе (Южная Австралия, Австралия) (141 км)
Погода в Нхилле (Виктория, Австралия) (144 км)
Погода в Стратолбине (Южная Австралия, Австралия) (149 км)
Погода в Хиндмарш Айленд (Южная Австралия, Австралия) (158 км)
Погода в Маунт Крофорд (Южная Австралия, Австралия) (163 км)

Пояснения к столбцам:

Ветер - указаны скорость ветра в м/с - средняя за 10 мин, порывы в срок и между сроками (в фигурных скобках) и направление, откуда дует ветер: С - северный, СВ - северо-восточный, В - восточный, ЮВ - юго-восточный, Ю - южный, ЮЗ - юго-западный, З - западный, СЗ - северо-западный.
Видимость - горизонтальная дальность видимости в метрах или километрах. При видимости от 1 до 10 км при отсутствии осадков обычно наблюдается дымка, при ухудшении видимости до 1 км и менее - туман. В сухую погоду видимость может ухудшаться дымом, пылью или мглою.
Явления - указаны атмосферные явления, наблюдавшиеся в срок или в последний час перед сроком; фигурными скобками обозначены явления, наблюдавшиеся между сроками (за 1-3 часа до срока); квадратными скобками обозначены град или гололедные отложения с указанием их диаметра в мм.
Облачность - указаны через наклонную черту общая и нижняя облачность в баллах и высота нижней границы облаков в метрах; квадратными скобками обозначены формы облаков: Ci - перистые, Cs - перисто-слоистые, Cc - перисто-кучевые, Ac - высококучевые, As - высокослоистые, Sc - слоисто-кучевые, Ns - слоисто-дождевые, Cu - кучевые, Cb - кучево-дождевые. Подробнее классификацию облаков см. в Атласе облаков (PDF).
T - Температура воздуха - температура, измеренная на высоте 2 м над землей.
Td - Температура точки росы - температура, при понижении до которой содержащийся в воздухе водяной пар достигнет насыщения.
f - Относительная влажность воздуха - влажноcть воздуха, измеренная на высоте 2 м над землей.
Te - Эффективная температура - температура, которую ощущает одетый по сезону человек в тени. Характеристика душности погоды. При расчете учитывается влияние влажности воздуха и скорости ветра на теплоощущения человека.
Tes - Эффективная температура на солнце - температура, которую ощущает человек, с поправкой на солнечный нагрев. Характеристика знойности погоды. Зависит от высоты солнца над горизонтом, облачности и скорости ветра. Ночью, в пасмурную погоду, а также при ветре 12 м/с и более поправка равна нулю.
P - Атмосферное давление - приведенное к уровню моря атмосферное давление.
Po - Атмосферное давление - измеренное на уровне метеостанции атмосферное давление.
Tmin - Минимальная температура - минимум температуры воздуха на высоте 2 м над землей.
Tmax - Максимальная температура - максимум температуры воздуха на высоте 2 м над землей.
R - Количество осадков - Количество выпавших осадков за период времени, мм. При наведении курсора мыши на число - период времени, за который выпало указанное количество осадков.
R24 - Количество осадков - Количество выпавших осадков за 24 часа, мм.
S - Снежный покров - Высота снежного покрова, см. При наведении курсора мыши на число - состояние снежного покрова и степень покрытия местности в баллах.